Weather History for Sacramento International, CA

Change the Weather History Date:

Sunday, September 29, 2013

  Actual Average Record
Temperature  
Mean Temperature 67 °F -  
Max Temperature 78 °F 85 °F 102 °F (1966)
Min Temperature 57 °F 54 °F 44 °F (2007)
Cooling Degree Days 2    
Growing Degree Days 17 (Base 50)    
Moisture  
Dew Point 57 °F    
Average Humidity 70    
Maximum Humidity 87    
Minimum Humidity 50    
Precipitation  
Precipitation 0.00 in - - ()
Sea Level Pressure  
Sea Level Pressure 30.04 in    
Wind  
Wind Speed 11 mph (South)    
Max Wind Speed 16 mph    
Max Gust Speed 18 mph    
Visibility 10 miles    
Events      
Averages and records for this station are not official NWS values.
T = Trace of Precipitation, MM = Missing Value Source: NWS Daily Summary

Daily Weather History Graph

Daily Weather History Graph

Search for Another Location

Airport:

Trip Planner

Search our weather history database for the weather conditions in past years. The results will help you decide how hot, cold, wet, or windy it might be!

Date:

Astronomy

Sep. 29, 2013 Rise Set
Actual Time 7:00 AM PDT 6:51 PM PDT
Civil Twilight 6:34 AM PDT 7:18 PM PDT
Nautical Twilight 6:03 AM PDT 7:48 PM PDT
Astronomical Twilight 5:32 AM PDT 8:20 PM PDT
Moon 1:49 AM PDT (9/29) 3:48 PM PDT (9/29)
Length of Visible Light 12h 43m
Length of Day
11h 50m
Waning Crescent, 26% of the Moon is Illuminated
Sep 29
Waning Crescent
Oct 4
New
Oct 11
First Quarter
Oct 18
Full
Oct 26
Last Quarter

Hourly Weather History & Observations

Time (PDT) Temp. Dew Point Humidity Pressure Visibility Wind Dir Wind Speed Gust Speed Precip Events Conditions
12:53 AM 61.0 °F 55.0 °F 81% 30.02 in 10.0 mi South 13.8 mph - N/A   Clear
1:53 AM 60.1 °F 55.0 °F 83% 30.03 in 10.0 mi South 13.8 mph - N/A   Clear
2:53 AM 60.1 °F 55.0 °F 83% 30.02 in 10.0 mi South 13.8 mph - N/A   Clear
3:53 AM 60.1 °F 55.0 °F 83% 30.02 in 10.0 mi SSE 12.7 mph - N/A   Clear
4:53 AM 60.1 °F 55.0 °F 83% 30.02 in 10.0 mi South 9.2 mph - N/A   Scattered Clouds
5:53 AM 59.0 °F 54.0 °F 83% 30.04 in 10.0 mi South 6.9 mph - N/A   Partly Cloudy
6:53 AM 57.9 °F 54.0 °F 87% 30.04 in 10.0 mi SSE 10.4 mph - N/A   Mostly Cloudy
7:53 AM 59.0 °F 55.0 °F 87% 30.05 in 10.0 mi SSE 10.4 mph - N/A   Mostly Cloudy
8:53 AM 63.0 °F 55.9 °F 78% 30.07 in 10.0 mi South 9.2 mph - N/A   Mostly Cloudy
9:53 AM 68.0 °F 57.0 °F 68% 30.08 in 10.0 mi SSE 5.8 mph - N/A   Mostly Cloudy
10:53 AM 73.9 °F 55.0 °F 52% 30.07 in 10.0 mi SSW 9.2 mph 17.3 mph N/A   Mostly Cloudy
11:53 AM 73.9 °F 55.9 °F 53% 30.08 in 10.0 mi SSW 11.5 mph - N/A   Mostly Cloudy
12:53 PM 75.0 °F 57.0 °F 53% 30.07 in 10.0 mi SSW 9.2 mph - N/A   Mostly Cloudy
1:53 PM 77.0 °F 57.9 °F 52% 30.05 in 10.0 mi SSW 11.5 mph 18.4 mph N/A   Mostly Cloudy
2:53 PM 75.0 °F 57.0 °F 53% 30.04 in 10.0 mi South 11.5 mph - N/A   Mostly Cloudy
3:53 PM 77.0 °F 57.0 °F 50% 30.02 in 10.0 mi SSW 9.2 mph - N/A   Mostly Cloudy
4:53 PM 75.0 °F 57.0 °F 53% 30.01 in 10.0 mi South 9.2 mph 18.4 mph N/A   Mostly Cloudy
5:53 PM 75.0 °F 57.9 °F 55% 30.01 in 10.0 mi SSW 15.0 mph - N/A   Mostly Cloudy
6:53 PM 72.0 °F 57.9 °F 61% 30.01 in 10.0 mi SSW 16.1 mph - N/A   Mostly Cloudy
7:53 PM 70.0 °F 59.0 °F 68% 30.04 in 10.0 mi SW 15.0 mph - N/A   Mostly Cloudy
8:53 PM 68.0 °F 59.0 °F 73% 30.04 in 10.0 mi WSW 13.8 mph - N/A   Scattered Clouds
9:53 PM 66.0 °F 59.0 °F 78% 30.04 in 10.0 mi SW 11.5 mph - N/A   Partly Cloudy
10:53 PM 64.9 °F 59.0 °F 81% 30.04 in 10.0 mi South 6.9 mph - N/A   Partly Cloudy
11:53 PM 63.0 °F 59.0 °F 87% 30.04 in 10.0 mi East 4.6 mph - N/A   Partly Cloudy